Time,TemperatureF,DewpointF,PressureIn,WindDirection,WindDirectionDegrees,WindSpeedMPH,WindSpeedGustMPH,Humidity,HourlyPrecipIn,Conditions,Clouds,dailyrainin,SoftwareType,DateUTC
2013-09-23 00:04:00,40.2,34.2,29.45,SE,143,0.0,0.0,79,0.00,,,0.18,Wunderground v.1.15,2013-09-23 06:04:00,
2013-09-23 00:10:00,39.9,34.2,29.45,SE,143,1.0,1.0,80,0.00,,,0.18,Wunderground v.1.15,2013-09-23 06:10:00,
2013-09-23 00:15:00,39.5,33.8,29.45,SE,143,0.0,3.0,80,0.00,,,0.18,Wunderground v.1.15,2013-09-23 06:15:00,
2013-09-23 00:21:00,39.2,33.9,29.46,SE,143,0.0,1.0,81,0.00,,,0.18,Wunderground v.1.15,2013-09-23 06:21:00,
2013-09-23 00:26:00,38.9,33.6,29.46,SE,143,0.0,1.0,81,0.00,,,0.18,Wunderground v.1.15,2013-09-23 06:26:00,
2013-09-23 00:31:00,38.6,33.3,29.45,SE,143,0.0,0.0,81,0.00,,,0.18,Wunderground v.1.15,2013-09-23 06:31:00,
2013-09-23 00:37:00,38.4,34.0,29.45,SE,143,0.0,0.0,84,0.00,,,0.18,Wunderground v.1.15,2013-09-23 06:37:00,
2013-09-23 00:42:00,38.1,33.7,29.45,ENE,76,1.0,5.0,84,0.00,,,0.18,Wunderground v.1.15,2013-09-23 06:42:00,
2013-09-23 00:48:00,37.7,33.6,29.44,ENE,76,0.0,5.0,85,0.00,,,0.18,Wunderground v.1.15,2013-09-23 06:48:00,
2013-09-23 00:53:00,37.3,33.2,29.44,ENE,76,2.0,5.0,85,0.00,,,0.00,Wunderground v.1.15,2013-09-23 06:53:00,
2013-09-23 00:59:00,37.0,32.9,29.45,ENE,76,0.0,5.0,85,0.00,,,0.00,Wunderground v.1.15,2013-09-23 06:59:00,
2013-09-23 01:04:00,36.8,33.3,29.45,East,81,6.0,6.0,87,0.00,,,0.00,Wunderground v.1.15,2013-09-23 07:04:00,
2013-09-23 01:09:00,36.7,33.2,29.44,East,80,5.0,6.0,87,0.00,,,0.00,Wunderground v.1.15,2013-09-23 07:09:00,
2013-09-23 01:15:00,36.7,32.9,29.44,East,80,1.0,5.0,86,0.00,,,0.00,Wunderground v.1.15,2013-09-23 07:15:00,
2013-09-23 01:21:00,36.8,33.6,29.44,East,80,4.0,4.0,88,0.00,,,0.00,Wunderground v.1.15,2013-09-23 07:21:00,
2013-09-23 01:26:00,36.8,33.6,29.44,East,81,2.0,5.0,88,0.00,,,0.00,Wunderground v.1.15,2013-09-23 07:26:00,
2013-09-23 01:31:00,37.0,33.2,29.43,East,88,4.0,4.0,86,0.00,,,0.00,Wunderground v.1.15,2013-09-23 07:31:00,
2013-09-23 01:37:00,37.3,32.9,29.43,SE,125,1.0,4.0,84,0.00,,,0.00,Wunderground v.1.15,2013-09-23 07:37:00,
2013-09-23 01:43:00,37.9,32.6,29.43,SSW,196,3.0,3.0,81,0.00,,,0.00,Wunderground v.1.15,2013-09-23 07:43:00,
2013-09-23 01:48:00,38.7,31.1,29.43,SW,216,9.0,9.0,74,0.00,,,0.00,Wunderground v.1.15,2013-09-23 07:48:00,
2013-09-23 01:53:00,40.0,31.4,29.43,West,279,5.0,6.0,71,0.00,,,0.00,Wunderground v.1.15,2013-09-23 07:53:00,
2013-09-23 01:59:00,40.6,31.2,29.43,SW,228,0.0,6.0,69,0.00,,,0.00,Wunderground v.1.15,2013-09-23 07:59:00,
2013-09-23 02:04:00,40.7,31.0,29.44,ESE,112,5.0,5.0,68,0.00,,,0.00,Wunderground v.1.15,2013-09-23 08:04:00,
2013-09-23 02:09:00,40.7,31.7,29.44,ESE,102,0.0,8.0,70,0.00,,,0.00,Wunderground v.1.15,2013-09-23 08:09:00,
2013-09-23 02:14:00,40.7,31.3,29.43,West,266,9.0,9.0,69,0.00,,,0.00,Wunderground v.1.15,2013-09-23 08:14:00,
2013-09-23 02:19:00,40.6,31.2,29.43,West,270,4.0,9.0,69,0.00,,,0.00,Wunderground v.1.15,2013-09-23 08:19:00,
2013-09-23 02:24:00,40.8,31.1,29.43,WNW,286,3.0,8.0,68,0.00,,,0.00,Wunderground v.1.15,2013-09-23 08:24:00,
2013-09-23 02:29:00,40.9,31.5,29.44,NW,305,0.0,8.0,69,0.00,,,0.00,Wunderground v.1.15,2013-09-23 08:29:00,
2013-09-23 02:34:00,40.8,32.1,29.43,NNW,330,1.0,4.0,71,0.00,,,0.00,Wunderground v.1.15,2013-09-23 08:34:00,
2013-09-23 02:39:00,40.6,32.3,29.43,WSW,238,1.0,7.0,72,0.00,,,0.00,Wunderground v.1.15,2013-09-23 08:39:00,
2013-09-23 02:44:00,40.5,31.5,29.44,NNW,327,3.0,14.0,70,0.00,,,0.00,Wunderground v.1.15,2013-09-23 08:44:00,
2013-09-23 02:49:00,40.6,31.2,29.43,West,263,11.0,14.0,69,0.00,,,0.00,Wunderground v.1.15,2013-09-23 08:49:00,
2013-09-23 02:54:00,40.9,31.9,29.44,WNW,296,1.0,7.0,70,0.00,,,0.00,Wunderground v.1.15,2013-09-23 08:54:00,
2013-09-23 02:59:00,41.1,30.6,29.44,West,276,14.0,18.0,66,0.00,,,0.00,Wunderground v.1.15,2013-09-23 08:59:00,
2013-09-23 03:04:00,41.6,30.7,29.44,West,278,12.0,14.0,65,0.00,,,0.00,Wunderground v.1.15,2013-09-23 09:04:00,
2013-09-23 03:09:00,41.9,30.6,29.44,West,262,11.0,23.0,64,0.00,,,0.00,Wunderground v.1.15,2013-09-23 09:09:00,
2013-09-23 03:14:00,42.0,30.7,29.44,West,269,8.0,14.0,64,0.00,,,0.00,Wunderground v.1.15,2013-09-23 09:14:00,
2013-09-23 03:19:00,42.0,31.1,29.44,WNW,297,6.0,14.0,65,0.00,,,0.00,Wunderground v.1.15,2013-09-23 09:19:00,
2013-09-23 03:24:00,41.8,31.3,29.45,West,268,4.0,14.0,66,0.00,,,0.00,Wunderground v.1.15,2013-09-23 09:24:00,
2013-09-23 03:29:00,41.8,31.3,29.45,West,270,12.0,17.0,66,0.00,,,0.00,Wunderground v.1.15,2013-09-23 09:29:00,
2013-09-23 03:34:00,41.8,31.3,29.45,West,275,5.0,9.0,66,0.00,,,0.00,Wunderground v.1.15,2013-09-23 09:34:00,
2013-09-23 03:39:00,41.8,31.3,29.45,WNW,284,0.0,9.0,66,0.00,,,0.00,Wunderground v.1.15,2013-09-23 09:39:00,
2013-09-23 03:44:00,41.7,31.5,29.44,WNW,287,8.0,8.0,67,0.00,,,0.00,Wunderground v.1.15,2013-09-23 09:44:00,
2013-09-23 03:50:00,41.7,31.5,29.45,West,280,4.0,4.0,67,0.00,,,0.00,Wunderground v.1.15,2013-09-23 09:50:00,
2013-09-23 03:55:00,41.8,30.9,29.44,West,262,7.0,14.0,65,0.00,,,0.00,Wunderground v.1.15,2013-09-23 09:55:00,
2013-09-23 04:00:00,42.1,31.2,29.44,WNW,298,5.0,5.0,65,0.00,,,0.00,Wunderground v.1.15,2013-09-23 10:00:00,
2013-09-23 04:05:00,42.3,31.4,29.45,West,266,5.0,15.0,65,0.00,,,0.00,Wunderground v.1.15,2013-09-23 10:05:00,
2013-09-23 04:10:00,42.4,31.5,29.44,WNW,282,16.0,16.0,65,0.00,,,0.00,Wunderground v.1.15,2013-09-23 10:10:00,
2013-09-23 04:15:00,42.4,31.5,29.44,WNW,287,8.0,16.0,65,0.00,,,0.00,Wunderground v.1.15,2013-09-23 10:15:00,
2013-09-23 04:20:00,42.4,31.5,29.45,WNW,302,5.0,8.0,65,0.00,,,0.00,Wunderground v.1.15,2013-09-23 10:20:00,
2013-09-23 04:25:00,42.3,31.4,29.45,WNW,291,7.0,12.0,65,0.00,,,0.00,Wunderground v.1.15,2013-09-23 10:25:00,
2013-09-23 04:30:00,42.2,31.3,29.45,WNW,286,4.0,6.0,65,0.00,,,0.00,Wunderground v.1.15,2013-09-23 10:30:00,
2013-09-23 04:35:00,42.2,31.3,29.46,West,274,7.0,11.0,65,0.00,,,0.00,Wunderground v.1.15,2013-09-23 10:35:00,
2013-09-23 04:40:00,42.2,31.3,29.46,West,278,4.0,6.0,65,0.00,,,0.00,Wunderground v.1.15,2013-09-23 10:40:00,
2013-09-23 04:45:00,42.3,31.0,29.46,WNW,286,8.0,21.0,64,0.00,,,0.00,Wunderground v.1.15,2013-09-23 10:45:00,
2013-09-23 04:50:00,42.4,30.7,29.46,WSW,252,9.0,9.0,63,0.00,,,0.00,Wunderground v.1.15,2013-09-23 10:50:00,
2013-09-23 04:55:00,42.4,31.5,29.46,West,275,2.0,14.0,65,0.00,,,0.00,Wunderground v.1.15,2013-09-23 10:55:00,
2013-09-23 05:00:00,42.2,30.9,29.46,WNW,290,4.0,7.0,64,0.00,,,0.00,Wunderground v.1.15,2013-09-23 11:00:00,
2013-09-23 05:05:00,42.1,31.6,29.47,West,279,7.0,12.0,66,0.00,,,0.00,Wunderground v.1.15,2013-09-23 11:05:00,
2013-09-23 05:10:00,42.0,31.5,29.48,WNW,289,4.0,5.0,66,0.00,,,0.00,Wunderground v.1.15,2013-09-23 11:10:00,
2013-09-23 05:15:00,41.8,31.3,29.48,WNW,288,4.0,13.0,66,0.00,,,0.00,Wunderground v.1.15,2013-09-23 11:15:00,
2013-09-23 05:20:00,41.6,31.1,29.49,WNW,290,2.0,6.0,66,0.00,,,0.00,Wunderground v.1.15,2013-09-23 11:20:00,
2013-09-23 05:25:00,41.5,31.0,29.49,WNW,288,7.0,12.0,66,0.00,,,0.00,Wunderground v.1.15,2013-09-23 11:25:00,
2013-09-23 05:30:00,41.4,30.9,29.49,WNW,292,10.0,14.0,66,0.00,,,0.00,Wunderground v.1.15,2013-09-23 11:30:00,
2013-09-23 05:35:00,41.5,31.0,29.49,NW,310,6.0,14.0,66,0.00,,,0.00,Wunderground v.1.15,2013-09-23 11:35:00,
2013-09-23 05:40:00,41.5,31.4,29.49,West,270,7.0,8.0,67,0.00,,,0.00,Wunderground v.1.15,2013-09-23 11:40:00,
2013-09-23 05:45:00,41.4,31.3,29.49,NW,313,2.0,9.0,67,0.00,,,0.00,Wunderground v.1.15,2013-09-23 11:45:00,
2013-09-23 05:50:00,41.3,31.2,29.50,WNW,301,2.0,4.0,67,0.00,,,0.00,Wunderground v.1.15,2013-09-23 11:50:00,
2013-09-23 05:55:00,41.1,31.0,29.50,WNW,290,4.0,8.0,67,0.00,,,0.00,Wunderground v.1.15,2013-09-23 11:55:00,
2013-09-23 06:00:00,41.0,31.2,29.50,WNW,286,2.0,3.0,68,0.00,,,0.00,Wunderground v.1.15,2013-09-23 12:00:00,
2013-09-23 06:05:00,40.7,31.0,29.51,WNW,290,6.0,6.0,68,0.00,,,0.00,Wunderground v.1.15,2013-09-23 12:05:00,
2013-09-23 06:10:00,40.6,30.9,29.51,WNW,286,3.0,4.0,68,0.00,,,0.00,Wunderground v.1.15,2013-09-23 12:10:00,
2013-09-23 06:15:00,40.5,31.1,29.52,WNW,287,3.0,7.0,69,0.00,,,0.00,Wunderground v.1.15,2013-09-23 12:15:00,
2013-09-23 06:20:00,40.3,30.6,29.52,WNW,300,3.0,3.0,68,0.00,,,0.00,Wunderground v.1.15,2013-09-23 12:20:00,
2013-09-23 06:25:00,40.2,30.5,29.52,WNW,301,2.0,7.0,68,0.00,,,0.00,Wunderground v.1.15,2013-09-23 12:25:00,
2013-09-23 06:30:00,40.2,30.8,29.53,West,275,1.0,5.0,69,0.00,,,0.00,Wunderground v.1.15,2013-09-23 12:30:00,
2013-09-23 06:35:00,40.2,30.8,29.53,West,281,2.0,8.0,69,0.00,,,0.00,Wunderground v.1.15,2013-09-23 12:35:00,
2013-09-23 06:40:00,40.0,30.6,29.54,NW,315,1.0,2.0,69,0.00,,,0.00,Wunderground v.1.15,2013-09-23 12:40:00,
2013-09-23 06:45:00,39.8,30.8,29.54,WSW,246,3.0,8.0,70,0.00,,,0.00,Wunderground v.1.15,2013-09-23 12:45:00,
2013-09-23 06:50:00,39.7,31.1,29.55,NW,322,2.0,2.0,71,0.00,,,0.00,Wunderground v.1.15,2013-09-23 12:50:00,
2013-09-23 06:55:00,39.5,30.9,29.55,WNW,300,1.0,7.0,71,0.00,,,0.00,Wunderground v.1.15,2013-09-23 12:55:00,
2013-09-23 07:00:00,39.3,30.7,29.55,NNW,334,4.0,6.0,71,0.00,,,0.00,Wunderground v.1.15,2013-09-23 13:00:00,
2013-09-23 07:05:00,39.2,30.6,29.55,NW,325,4.0,8.0,71,0.00,,,0.00,Wunderground v.1.15,2013-09-23 13:05:00,
2013-09-23 07:10:00,39.2,30.9,29.55,WNW,294,2.0,4.0,72,0.00,,,0.00,Wunderground v.1.15,2013-09-23 13:10:00,
2013-09-23 07:15:00,39.1,30.8,29.55,NW,315,2.0,6.0,72,0.00,,,0.00,Wunderground v.1.15,2013-09-23 13:15:00,
2013-09-23 07:20:00,39.0,30.7,29.56,NW,318,0.0,4.0,72,0.00,,,0.00,Wunderground v.1.15,2013-09-23 13:20:00,
2013-09-23 07:25:00,39.1,30.8,29.56,NW,317,3.0,8.0,72,0.00,,,0.00,Wunderground v.1.15,2013-09-23 13:25:00,
2013-09-23 07:31:00,39.2,30.6,29.56,WNW,290,1.0,5.0,71,0.00,,,0.00,Wunderground v.1.15,2013-09-23 13:31:00,
2013-09-23 07:36:00,39.3,30.7,29.57,NW,321,2.0,5.0,71,0.00,,,0.00,Wunderground v.1.15,2013-09-23 13:36:00,
2013-09-23 07:41:00,39.5,30.9,29.57,NW,321,2.0,3.0,71,0.00,,,0.00,Wunderground v.1.15,2013-09-23 13:41:00,
2013-09-23 07:46:00,39.5,30.9,29.57,NNW,331,4.0,4.0,71,0.00,,,0.00,Wunderground v.1.15,2013-09-23 13:46:00,
2013-09-23 07:51:00,39.7,30.7,29.58,North,5,2.0,9.0,70,0.00,,,0.00,Wunderground v.1.15,2013-09-23 13:51:00,
2013-09-23 07:56:00,40.2,31.2,29.58,NNE,31,0.0,9.0,70,0.00,,,0.00,Wunderground v.1.15,2013-09-23 13:56:00,
2013-09-23 08:01:00,40.7,31.3,29.58,NNE,28,0.0,3.0,69,0.00,,,0.00,Wunderground v.1.15,2013-09-23 14:01:00,
2013-09-23 08:06:00,41.3,31.5,29.58,NW,313,2.0,4.0,68,0.00,,,0.00,Wunderground v.1.15,2013-09-23 14:06:00,
2013-09-23 08:11:00,41.8,32.4,29.59,NW,325,2.0,2.0,69,0.00,,,0.00,Wunderground v.1.15,2013-09-23 14:11:00,
2013-09-23 08:16:00,42.4,32.6,29.59,NW,318,0.0,5.0,68,0.00,,,0.00,Wunderground v.1.15,2013-09-23 14:16:00,
2013-09-23 08:21:00,43.5,32.5,29.59,NW,315,6.0,6.0,65,0.00,,,0.00,Wunderground v.1.15,2013-09-23 14:21:00,
2013-09-23 08:26:00,45.1,33.2,29.60,NW,316,9.0,12.0,63,0.00,,,0.00,Wunderground v.1.15,2013-09-23 14:26:00,
2013-09-23 08:31:00,46.5,33.8,29.60,WNW,292,2.0,5.0,61,0.00,,,0.00,Wunderground v.1.15,2013-09-23 14:31:00,
2013-09-23 08:36:00,47.3,32.4,29.61,West,277,13.0,13.0,56,0.00,,,0.00,Wunderground v.1.15,2013-09-23 14:36:00,
2013-09-23 08:41:00,47.4,32.0,29.61,WNW,289,5.0,12.0,55,0.00,,,0.00,Wunderground v.1.15,2013-09-23 14:41:00,
2013-09-23 08:46:00,48.2,32.3,29.61,WSW,257,4.0,13.0,54,0.00,,,0.00,Wunderground v.1.15,2013-09-23 14:46:00,
2013-09-23 08:51:00,49.4,33.0,29.61,WNW,290,4.0,11.0,53,0.00,,,0.00,Wunderground v.1.15,2013-09-23 14:51:00,
2013-09-23 08:56:00,50.3,33.8,29.61,WSW,254,4.0,11.0,53,0.00,,,0.00,Wunderground v.1.15,2013-09-23 14:56:00,
2013-09-23 09:01:00,51.2,33.2,29.62,West,275,3.0,9.0,50,0.00,,,0.00,Wunderground v.1.15,2013-09-23 15:01:00,
2013-09-23 09:06:00,52.0,33.4,29.62,WNW,288,6.0,14.0,49,0.00,,,0.00,Wunderground v.1.15,2013-09-23 15:06:00,
2013-09-23 09:11:00,52.3,33.7,29.63,WNW,288,4.0,9.0,49,0.00,,,0.00,Wunderground v.1.15,2013-09-23 15:11:00,
2013-09-23 09:16:00,52.1,31.9,29.63,West,275,10.0,17.0,46,0.00,,,0.00,Wunderground v.1.15,2013-09-23 15:16:00,
2013-09-23 09:21:00,51.8,31.7,29.63,West,263,12.0,22.0,46,0.00,,,0.00,Wunderground v.1.15,2013-09-23 15:21:00,
2013-09-23 09:26:00,51.9,33.3,29.64,WNW,284,5.0,22.0,49,0.00,,,0.00,Wunderground v.1.15,2013-09-23 15:26:00,
2013-09-23 09:31:00,51.8,32.7,29.64,West,265,9.0,15.0,48,0.00,,,0.00,Wunderground v.1.15,2013-09-23 15:31:00,
2013-09-23 09:36:00,52.1,33.0,29.64,SW,215,13.0,19.0,48,0.00,,,0.00,Wunderground v.1.15,2013-09-23 15:36:00,
2013-09-23 09:41:00,52.2,32.6,29.65,WNW,301,10.0,16.0,47,0.00,,,0.00,Wunderground v.1.15,2013-09-23 15:41:00,
2013-09-23 09:46:00,52.2,32.0,29.65,WNW,285,9.0,20.0,46,0.00,,,0.00,Wunderground v.1.15,2013-09-23 15:46:00,
2013-09-23 09:51:00,52.3,32.6,29.66,NW,305,21.0,21.0,47,0.00,,,0.00,Wunderground v.1.15,2013-09-23 15:51:00,
2013-09-23 09:56:00,52.2,32.0,29.66,West,271,17.0,22.0,46,0.00,,,0.00,Wunderground v.1.15,2013-09-23 15:56:00,
2013-09-23 10:01:00,52.1,33.0,29.66,WSW,246,10.0,20.0,48,0.00,,,0.00,Wunderground v.1.15,2013-09-23 16:01:00,
2013-09-23 10:06:00,52.2,33.1,29.67,NW,306,9.0,20.0,48,0.00,,,0.00,Wunderground v.1.15,2013-09-23 16:06:00,
2013-09-23 10:11:00,53.0,33.3,29.67,West,271,5.0,18.0,47,0.00,,,0.00,Wunderground v.1.15,2013-09-23 16:11:00,
2013-09-23 10:16:00,53.5,32.7,29.67,WNW,289,8.0,20.0,45,0.00,,,0.00,Wunderground v.1.15,2013-09-23 16:16:00,
2013-09-23 10:21:00,53.9,32.5,29.68,WSW,254,9.0,19.0,44,0.00,,,0.00,Wunderground v.1.15,2013-09-23 16:21:00,
2013-09-23 10:26:00,54.3,32.3,29.68,West,269,13.0,22.0,43,0.00,,,0.00,Wunderground v.1.15,2013-09-23 16:26:00,
2013-09-23 10:31:00,54.2,32.2,29.68,WSW,240,6.0,18.0,43,0.00,,,0.00,Wunderground v.1.15,2013-09-23 16:31:00,
2013-09-23 10:36:00,54.2,32.2,29.68,NW,313,8.0,18.0,43,0.00,,,0.00,Wunderground v.1.15,2013-09-23 16:36:00,
2013-09-23 10:41:00,53.8,31.2,29.69,West,270,18.0,26.0,42,0.00,,,0.00,Wunderground v.1.15,2013-09-23 16:41:00,
2013-09-23 10:46:00,53.4,32.0,29.69,SW,226,13.0,26.0,44,0.00,,,0.00,Wunderground v.1.15,2013-09-23 16:46:00,
2013-09-23 10:52:00,53.7,32.8,29.70,West,265,4.0,16.0,45,0.00,,,0.00,Wunderground v.1.15,2013-09-23 16:52:00,
2013-09-23 10:57:00,54.3,32.8,29.70,West,272,12.0,19.0,44,0.00,,,0.00,Wunderground v.1.15,2013-09-23 16:57:00,
2013-09-23 11:02:00,55.0,32.9,29.70,WNW,282,6.0,11.0,43,0.00,,,0.00,Wunderground v.1.15,2013-09-23 17:02:00,
2013-09-23 11:07:00,55.7,32.3,29.70,West,263,11.0,15.0,41,0.00,,,0.00,Wunderground v.1.15,2013-09-23 17:07:00,
2013-09-23 11:12:00,56.3,32.3,29.70,West,279,13.0,17.0,40,0.00,,,0.00,Wunderground v.1.15,2013-09-23 17:12:00,
2013-09-23 11:17:00,56.5,31.8,29.70,SW,225,1.0,21.0,39,0.00,,,0.00,Wunderground v.1.15,2013-09-23 17:17:00,
2013-09-23 11:22:00,56.7,32.6,29.70,West,265,4.0,13.0,40,0.00,,,0.00,Wunderground v.1.15,2013-09-23 17:22:00,
2013-09-23 11:27:00,57.6,34.1,29.71,WSW,245,10.0,13.0,41,0.00,,,0.00,Wunderground v.1.15,2013-09-23 17:27:00,
2013-09-23 11:32:00,58.7,31.1,29.71,North,356,6.0,16.0,35,0.00,,,0.00,Wunderground v.1.15,2013-09-23 17:32:00,
2013-09-23 11:37:00,59.4,32.4,29.71,WNW,286,7.0,18.0,36,0.00,,,0.00,Wunderground v.1.15,2013-09-23 17:37:00,
2013-09-23 11:42:00,60.1,32.3,29.71,West,270,7.0,13.0,35,0.00,,,0.00,Wunderground v.1.15,2013-09-23 17:42:00,
2013-09-23 11:47:00,60.5,31.2,29.72,West,274,6.0,14.0,33,0.00,,,0.00,Wunderground v.1.15,2013-09-23 17:47:00,
2013-09-23 11:52:00,60.5,33.4,29.72,WNW,287,13.0,17.0,36,0.00,,,0.00,Wunderground v.1.15,2013-09-23 17:52:00,
2013-09-23 11:57:00,59.7,30.5,29.72,WSW,253,3.0,23.0,33,0.00,,,0.00,Wunderground v.1.15,2013-09-23 17:57:00,
2013-09-23 12:02:00,59.3,31.6,29.72,NNE,23,14.0,16.0,35,0.00,,,0.00,Wunderground v.1.15,2013-09-23 18:02:00,
2013-09-23 12:07:00,59.9,32.9,29.73,NNW,332,7.0,16.0,36,0.00,,,0.00,Wunderground v.1.15,2013-09-23 18:07:00,
2013-09-23 12:12:00,60.7,34.3,29.73,WSW,241,10.0,10.0,37,0.00,,,0.00,Wunderground v.1.15,2013-09-23 18:12:00,
2013-09-23 12:17:00,61.3,31.9,29.73,WNW,296,8.0,17.0,33,0.00,,,0.00,Wunderground v.1.15,2013-09-23 18:17:00,
2013-09-23 12:22:00,61.6,32.2,29.73,SW,232,5.0,10.0,33,0.00,,,0.00,Wunderground v.1.15,2013-09-23 18:22:00,
2013-09-23 12:27:00,62.5,33.0,29.74,WNW,289,2.0,16.0,33,0.00,,,0.00,Wunderground v.1.15,2013-09-23 18:27:00,
2013-09-23 12:32:00,62.2,32.0,29.74,West,263,9.0,18.0,32,0.00,,,0.00,Wunderground v.1.15,2013-09-23 18:32:00,
2013-09-23 12:37:00,60.9,30.8,29.74,NW,321,7.0,19.0,32,0.00,,,0.00,Wunderground v.1.15,2013-09-23 18:37:00,
2013-09-23 12:42:00,61.3,31.9,29.74,WNW,301,6.0,12.0,33,0.00,,,0.00,Wunderground v.1.15,2013-09-23 18:42:00,
2013-09-23 12:47:00,61.6,29.8,29.74,WSW,257,12.0,17.0,30,0.00,,,0.00,Wunderground v.1.15,2013-09-23 18:47:00,
2013-09-23 12:52:00,60.7,29.9,29.74,West,270,11.0,17.0,31,0.00,,,0.00,Wunderground v.1.15,2013-09-23 18:52:00,
2013-09-23 12:57:00,60.7,32.1,29.74,WNW,286,4.0,17.0,34,0.00,,,0.00,Wunderground v.1.15,2013-09-23 18:57:00,
2013-09-23 13:02:00,61.3,32.7,29.75,WNW,291,9.0,17.0,34,0.00,,,0.00,Wunderground v.1.15,2013-09-23 19:02:00,
2013-09-23 13:07:00,62.3,30.4,29.75,WNW,286,5.0,17.0,30,0.00,,,0.00,Wunderground v.1.15,2013-09-23 19:07:00,
2013-09-23 13:12:00,63.2,30.4,29.75,WNW,286,6.0,11.0,29,0.00,,,0.00,Wunderground v.1.15,2013-09-23 19:12:00,
2013-09-23 13:17:00,63.7,30.0,29.75,WNW,292,10.0,15.0,28,0.00,,,0.00,Wunderground v.1.15,2013-09-23 19:17:00,
2013-09-23 13:22:00,64.1,30.3,29.75,WNW,285,7.0,8.0,28,0.00,,,0.00,Wunderground v.1.15,2013-09-23 19:22:00,
2013-09-23 13:27:00,65.0,31.1,29.75,West,274,10.0,14.0,28,0.00,,,0.00,Wunderground v.1.15,2013-09-23 19:27:00,
2013-09-23 13:32:00,65.2,29.4,29.75,West,280,7.0,15.0,26,0.00,,,0.00,Wunderground v.1.15,2013-09-23 19:32:00,
2013-09-23 13:37:00,65.2,28.5,29.75,WSW,249,8.0,15.0,25,0.00,,,0.00,Wunderground v.1.15,2013-09-23 19:37:00,
2013-09-23 13:42:00,65.6,29.8,29.75,NNW,336,7.0,14.0,26,0.00,,,0.00,Wunderground v.1.15,2013-09-23 19:42:00,
2013-09-23 13:47:00,65.7,29.8,29.75,NW,308,6.0,14.0,26,0.00,,,0.00,Wunderground v.1.15,2013-09-23 19:47:00,
2013-09-23 13:52:00,65.9,29.1,29.76,NW,317,13.0,15.0,25,0.00,,,0.00,Wunderground v.1.15,2013-09-23 19:52:00,
2013-09-23 13:57:00,66.3,30.4,29.76,NW,309,8.0,15.0,26,0.00,,,0.00,Wunderground v.1.15,2013-09-23 19:57:00,
2013-09-23 14:02:00,66.5,27.5,29.76,WSW,258,9.0,14.0,23,0.00,,,0.00,Wunderground v.1.15,2013-09-23 20:02:00,
2013-09-23 14:07:00,66.1,27.2,29.76,WNW,289,8.0,16.0,23,0.00,,,0.00,Wunderground v.1.15,2013-09-23 20:07:00,
2013-09-23 14:12:00,66.1,28.2,29.76,NW,304,10.0,15.0,24,0.00,,,0.00,Wunderground v.1.15,2013-09-23 20:12:00,
2013-09-23 14:17:00,66.5,32.4,29.77,NW,308,11.0,15.0,28,0.00,,,0.00,Wunderground v.1.15,2013-09-23 20:17:00,
2013-09-23 14:22:00,67.0,31.0,29.77,WNW,294,6.0,13.0,26,0.00,,,0.00,Wunderground v.1.15,2013-09-23 20:22:00,
2013-09-23 14:27:00,66.9,27.9,29.77,WNW,294,11.0,17.0,23,0.00,,,0.00,Wunderground v.1.15,2013-09-23 20:27:00,
2013-09-23 14:32:00,66.6,28.6,29.77,West,277,8.0,18.0,24,0.00,,,0.00,Wunderground v.1.15,2013-09-23 20:32:00,
2013-09-23 14:37:00,66.0,29.1,29.78,WNW,284,7.0,18.0,25,0.00,,,0.00,Wunderground v.1.15,2013-09-23 20:37:00,
2013-09-23 14:42:00,66.2,29.3,29.78,WNW,284,9.0,11.0,25,0.00,,,0.00,Wunderground v.1.15,2013-09-23 20:42:00,
2013-09-23 14:48:00,66.0,29.1,29.78,NNW,336,6.0,17.0,25,0.00,,,0.00,Wunderground v.1.15,2013-09-23 20:48:00,
2013-09-23 14:53:00,66.5,27.5,29.78,NW,310,12.0,17.0,23,0.00,,,0.00,Wunderground v.1.15,2013-09-23 20:53:00,
2013-09-23 14:58:00,66.5,28.6,29.78,WNW,295,5.0,17.0,24,0.00,,,0.00,Wunderground v.1.15,2013-09-23 20:58:00,
2013-09-23 15:03:00,66.4,31.4,29.78,WNW,292,10.0,14.0,27,0.00,,,0.00,Wunderground v.1.15,2013-09-23 21:03:00,
2013-09-23 15:08:00,67.1,29.1,29.79,WNW,302,0.0,14.0,24,0.00,,,0.00,Wunderground v.1.15,2013-09-23 21:08:00,
2013-09-23 15:13:00,67.3,28.2,29.79,WNW,287,12.0,16.0,23,0.00,,,0.00,Wunderground v.1.15,2013-09-23 21:13:00,
2013-09-23 15:18:00,66.6,28.6,29.79,West,276,11.0,16.0,24,0.00,,,0.00,Wunderground v.1.15,2013-09-23 21:18:00,
2013-09-23 15:23:00,66.1,28.2,29.80,West,278,8.0,15.0,24,0.00,,,0.00,Wunderground v.1.15,2013-09-23 21:23:00,
2013-09-23 15:28:00,66.2,29.3,29.80,WNW,284,12.0,15.0,25,0.00,,,0.00,Wunderground v.1.15,2013-09-23 21:28:00,
2013-09-23 15:33:00,66.3,27.4,29.80,WNW,282,4.0,17.0,23,0.00,,,0.00,Wunderground v.1.15,2013-09-23 21:33:00,
2013-09-23 15:38:00,66.2,29.3,29.80,NW,307,6.0,17.0,25,0.00,,,0.00,Wunderground v.1.15,2013-09-23 21:38:00,
2013-09-23 15:43:00,66.3,28.4,29.80,WSW,244,9.0,13.0,24,0.00,,,0.00,Wunderground v.1.15,2013-09-23 21:43:00,
2013-09-23 15:48:00,66.2,29.3,29.81,WNW,289,5.0,14.0,25,0.00,,,0.00,Wunderground v.1.15,2013-09-23 21:48:00,
2013-09-23 15:53:00,66.2,29.3,29.81,WNW,282,4.0,14.0,25,0.00,,,0.00,Wunderground v.1.15,2013-09-23 21:53:00,
2013-09-23 15:58:00,66.3,29.4,29.81,West,269,5.0,16.0,25,0.00,,,0.00,Wunderground v.1.15,2013-09-23 21:58:00,
2013-09-23 16:03:00,66.1,28.2,29.81,NW,321,5.0,16.0,24,0.00,,,0.00,Wunderground v.1.15,2013-09-23 22:03:00,
2013-09-23 16:08:00,66.0,28.1,29.81,WNW,303,4.0,16.0,24,0.00,,,0.00,Wunderground v.1.15,2013-09-23 22:08:00,
2013-09-23 16:13:00,66.4,29.5,29.81,WNW,287,5.0,7.0,25,0.00,,,0.00,Wunderground v.1.15,2013-09-23 22:13:00,
2013-09-23 16:18:00,66.8,27.8,29.81,WNW,295,7.0,14.0,23,0.00,,,0.00,Wunderground v.1.15,2013-09-23 22:18:00,
2013-09-23 16:23:00,66.9,26.8,29.81,NNW,346,8.0,15.0,22,0.00,,,0.00,Wunderground v.1.15,2013-09-23 22:23:00,
2013-09-23 16:28:00,66.9,28.9,29.81,WSW,249,7.0,15.0,24,0.00,,,0.00,Wunderground v.1.15,2013-09-23 22:28:00,
2013-09-23 16:33:00,66.5,27.5,29.82,West,276,7.0,12.0,23,0.00,,,0.00,Wunderground v.1.15,2013-09-23 22:33:00,
2013-09-23 16:38:00,65.9,27.0,29.82,NW,311,2.0,12.0,23,0.00,,,0.00,Wunderground v.1.15,2013-09-23 22:38:00,
2013-09-23 16:43:00,66.0,27.1,29.83,WNW,303,3.0,9.0,23,0.00,,,0.00,Wunderground v.1.15,2013-09-23 22:43:00,
2013-09-23 16:48:00,66.3,28.4,29.83,WNW,290,0.0,10.0,24,0.00,,,0.00,Wunderground v.1.15,2013-09-23 22:48:00,
2013-09-23 16:53:00,66.6,27.6,29.84,WNW,300,7.0,11.0,23,0.00,,,0.00,Wunderground v.1.15,2013-09-23 22:53:00,
2013-09-23 16:58:00,66.7,26.6,29.84,NW,315,4.0,12.0,22,0.00,,,0.00,Wunderground v.1.15,2013-09-23 22:58:00,
2013-09-23 17:03:00,66.5,27.5,29.84,NNW,339,8.0,8.0,23,0.00,,,0.00,Wunderground v.1.15,2013-09-23 23:03:00,
2013-09-23 17:08:00,66.3,27.4,29.84,NW,313,2.0,8.0,23,0.00,,,0.00,Wunderground v.1.15,2013-09-23 23:08:00,
2013-09-23 17:13:00,66.3,28.4,29.84,NNW,335,6.0,8.0,24,0.00,,,0.00,Wunderground v.1.15,2013-09-23 23:13:00,
2013-09-23 17:18:00,66.0,28.1,29.85,NNE,23,4.0,13.0,24,0.00,,,0.00,Wunderground v.1.15,2013-09-23 23:18:00,
2013-09-23 17:23:00,65.6,26.8,29.84,North,6,2.0,15.0,23,0.00,,,0.00,Wunderground v.1.15,2013-09-23 23:23:00,
2013-09-23 17:28:00,65.0,26.3,29.85,NNE,18,6.0,16.0,23,0.00,,,0.00,Wunderground v.1.15,2013-09-23 23:28:00,
2013-09-23 17:33:00,64.7,27.0,29.85,North,353,7.0,10.0,24,0.00,,,0.00,Wunderground v.1.15,2013-09-23 23:33:00,
2013-09-23 17:38:00,64.3,27.7,29.85,NNW,342,6.0,10.0,25,0.00,,,0.00,Wunderground v.1.15,2013-09-23 23:38:00,
2013-09-23 17:43:00,64.0,27.4,29.85,North,359,3.0,11.0,25,0.00,,,0.00,Wunderground v.1.15,2013-09-23 23:43:00,
2013-09-23 17:48:00,63.9,27.4,29.86,WSW,241,5.0,11.0,25,0.00,,,0.00,Wunderground v.1.15,2013-09-23 23:48:00,
2013-09-23 17:53:00,63.4,27.9,29.86,NNW,348,6.0,10.0,26,0.00,,,0.00,Wunderground v.1.15,2013-09-23 23:53:00,
2013-09-23 17:58:00,62.7,26.3,29.87,WNW,300,7.0,11.0,25,0.00,,,0.00,Wunderground v.1.15,2013-09-23 23:58:00,
2013-09-23 18:03:00,62.0,26.7,29.87,NW,305,2.0,7.0,26,0.00,,,0.00,Wunderground v.1.15,2013-09-24 00:03:00,
2013-09-23 18:08:00,61.3,26.1,29.87,WNW,297,6.0,12.0,26,0.00,,,0.00,Wunderground v.1.15,2013-09-24 00:08:00,
2013-09-23 18:13:00,60.5,26.3,29.88,NNW,337,3.0,10.0,27,0.00,,,0.00,Wunderground v.1.15,2013-09-24 00:13:00,
2013-09-23 18:18:00,59.8,25.7,29.88,NNW,338,2.0,10.0,27,0.00,,,0.00,Wunderground v.1.15,2013-09-24 00:18:00,
2013-09-23 18:24:00,59.4,27.1,29.88,NW,316,3.0,6.0,29,0.00,,,0.00,Wunderground v.1.15,2013-09-24 00:24:00,
2013-09-23 18:29:00,58.9,26.7,29.88,NW,322,6.0,8.0,29,0.00,,,0.00,Wunderground v.1.15,2013-09-24 00:29:00,
2013-09-23 18:34:00,58.1,26.8,29.88,WNW,300,2.0,7.0,30,0.00,,,0.00,Wunderground v.1.15,2013-09-24 00:34:00,
2013-09-23 18:39:00,57.1,26.7,29.88,NNE,15,7.0,7.0,31,0.00,,,0.00,Wunderground v.1.15,2013-09-24 00:39:00,
2013-09-23 18:44:00,56.0,26.5,29.88,NNE,22,1.0,9.0,32,0.00,,,0.00,Wunderground v.1.15,2013-09-24 00:44:00,
2013-09-23 18:49:00,54.9,26.3,29.88,North,357,1.0,9.0,33,0.00,,,0.00,Wunderground v.1.15,2013-09-24 00:49:00,
2013-09-23 18:54:00,53.9,26.1,29.88,ENE,59,4.0,7.0,34,0.00,,,0.00,Wunderground v.1.15,2013-09-24 00:54:00,
2013-09-23 18:59:00,52.9,26.6,29.89,North,11,4.0,7.0,36,0.00,,,0.00,Wunderground v.1.15,2013-09-24 00:59:00,
2013-09-23 19:04:00,52.0,25.8,29.89,NW,326,3.0,8.0,36,0.00,,,0.00,Wunderground v.1.15,2013-09-24 01:04:00,
2013-09-23 19:09:00,51.2,25.8,29.90,North,352,4.0,8.0,37,0.00,,,0.00,Wunderground v.1.15,2013-09-24 01:09:00,
2013-09-23 19:14:00,50.5,25.8,29.90,NNW,332,1.0,7.0,38,0.00,,,0.00,Wunderground v.1.15,2013-09-24 01:14:00,
2013-09-23 19:19:00,50.0,26.0,29.90,NNW,338,6.0,9.0,39,0.00,,,0.00,Wunderground v.1.15,2013-09-24 01:19:00,
2013-09-23 19:24:00,49.5,26.1,29.90,NNW,338,1.0,5.0,40,0.00,,,0.00,Wunderground v.1.15,2013-09-24 01:24:00,
2013-09-23 19:29:00,49.0,25.7,29.91,NNE,12,2.0,6.0,40,0.00,,,0.00,Wunderground v.1.15,2013-09-24 01:29:00,
2013-09-23 19:34:00,48.5,25.8,29.91,WNW,298,8.0,8.0,41,0.00,,,0.00,Wunderground v.1.15,2013-09-24 01:34:00,
2013-09-23 19:39:00,48.1,26.1,29.91,NE,53,0.0,9.0,42,0.00,,,0.00,Wunderground v.1.15,2013-09-24 01:39:00,
2013-09-23 19:44:00,47.8,25.2,29.92,NNW,341,0.0,8.0,41,0.00,,,0.00,Wunderground v.1.15,2013-09-24 01:44:00,
2013-09-23 19:49:00,47.4,26.0,29.91,North,350,0.0,8.0,43,0.00,,,0.00,Wunderground v.1.15,2013-09-24 01:49:00,
2013-09-23 19:54:00,47.0,25.6,29.92,North,350,0.0,2.0,43,0.00,,,0.00,Wunderground v.1.15,2013-09-24 01:54:00,
2013-09-23 19:59:00,46.6,25.8,29.92,North,350,0.0,3.0,44,0.00,,,0.00,Wunderground v.1.15,2013-09-24 01:59:00,
2013-09-23 20:04:00,46.1,25.4,29.92,North,351,0.0,3.0,44,0.00,,,0.00,Wunderground v.1.15,2013-09-24 02:04:00,
2013-09-23 20:09:00,45.7,26.6,29.92,ENE,76,0.0,4.0,47,0.00,,,0.00,Wunderground v.1.15,2013-09-24 02:09:00,
2013-09-23 20:14:00,45.1,26.6,29.93,ENE,76,1.0,2.0,48,0.00,,,0.00,Wunderground v.1.15,2013-09-24 02:14:00,
2013-09-23 20:19:00,44.7,25.7,29.93,ENE,76,0.0,3.0,47,0.00,,,0.00,Wunderground v.1.15,2013-09-24 02:19:00,
2013-09-23 20:24:00,44.2,25.7,29.94,NNW,348,0.0,6.0,48,0.00,,,0.00,Wunderground v.1.15,2013-09-24 02:24:00,
2013-09-23 20:29:00,43.8,24.9,29.94,NNE,30,0.0,6.0,47,0.00,,,0.00,Wunderground v.1.15,2013-09-24 02:29:00,
2013-09-23 20:34:00,43.5,25.1,29.95,NNE,30,0.0,3.0,48,0.00,,,0.00,Wunderground v.1.15,2013-09-24 02:34:00,
2013-09-23 20:39:00,43.2,26.3,29.95,NNE,28,0.0,3.0,51,0.00,,,0.00,Wunderground v.1.15,2013-09-24 02:39:00,
2013-09-23 20:44:00,42.9,26.0,29.95,NNE,28,1.0,1.0,51,0.00,,,0.00,Wunderground v.1.15,2013-09-24 02:44:00,
2013-09-23 20:49:00,42.5,25.1,29.95,NNE,28,0.0,1.0,50,0.00,,,0.00,Wunderground v.1.15,2013-09-24 02:49:00,
2013-09-23 20:54:00,42.1,24.3,29.95,NNE,28,0.0,3.0,49,0.00,,,0.00,Wunderground v.1.15,2013-09-24 02:54:00,
2013-09-23 20:59:00,41.6,24.8,29.96,NNE,20,2.0,4.0,51,0.00,,,0.00,Wunderground v.1.15,2013-09-24 02:59:00,
2013-09-23 21:04:00,41.3,25.9,29.96,ENE,61,2.0,4.0,54,0.00,,,0.00,Wunderground v.1.15,2013-09-24 03:04:00,
2013-09-23 21:09:00,40.8,25.4,29.97,ENE,61,2.0,4.0,54,0.00,,,0.00,Wunderground v.1.15,2013-09-24 03:09:00,
2013-09-23 21:14:00,40.5,25.1,29.97,ENE,61,1.0,3.0,54,0.00,,,0.00,Wunderground v.1.15,2013-09-24 03:14:00,
2013-09-23 21:19:00,40.2,24.9,29.97,ENE,61,1.0,3.0,54,0.00,,,0.00,Wunderground v.1.15,2013-09-24 03:19:00,
2013-09-23 21:24:00,40.0,25.1,29.98,ENE,62,2.0,3.0,55,0.00,,,0.00,Wunderground v.1.15,2013-09-24 03:24:00,
2013-09-23 21:29:00,39.7,25.3,29.98,East,83,3.0,3.0,56,0.00,,,0.00,Wunderground v.1.15,2013-09-24 03:29:00,
2013-09-23 21:34:00,39.4,25.8,29.98,East,84,1.0,3.0,58,0.00,,,0.00,Wunderground v.1.15,2013-09-24 03:34:00,
2013-09-23 21:39:00,39.1,25.6,29.98,East,84,1.0,1.0,58,0.00,,,0.00,Wunderground v.1.15,2013-09-24 03:39:00,
2013-09-23 21:44:00,38.6,25.5,29.98,East,84,2.0,3.0,59,0.00,,,0.00,Wunderground v.1.15,2013-09-24 03:44:00,
2013-09-23 21:49:00,38.2,24.7,29.99,East,84,2.0,2.0,58,0.00,,,0.00,Wunderground v.1.15,2013-09-24 03:49:00,
2013-09-23 21:54:00,37.9,25.2,29.99,East,84,0.0,2.0,60,0.00,,,0.00,Wunderground v.1.15,2013-09-24 03:54:00,
2013-09-23 21:59:00,37.5,26.0,29.99,East,84,2.0,2.0,63,0.00,,,0.00,Wunderground v.1.15,2013-09-24 03:59:00,
2013-09-23 22:01:00,37.4,26.3,29.99,East,84,1.0,2.0,64,0.00,,,0.00,Wunderground v.1.15,2013-09-24 04:01:00,
2013-09-23 22:02:00,37.3,26.2,29.99,East,84,3.0,4.0,64,0.00,,,0.00,Wunderground v.1.15,2013-09-24 04:02:00,
2013-09-23 22:07:00,36.8,26.1,30.00,East,84,3.0,4.0,65,0.00,,,0.00,Wunderground v.1.15,2013-09-24 04:07:00,
2013-09-23 22:12:00,36.3,26.0,30.00,East,84,2.0,4.0,66,0.00,,,0.00,Wunderground v.1.15,2013-09-24 04:12:00,
2013-09-23 22:17:00,35.9,26.0,30.00,East,84,2.0,4.0,67,0.00,,,0.00,Wunderground v.1.15,2013-09-24 04:17:00,
2013-09-23 22:22:00,35.6,25.7,30.00,East,84,2.0,3.0,67,0.00,,,0.00,Wunderground v.1.15,2013-09-24 04:22:00,
2013-09-23 22:27:00,35.3,25.1,30.01,East,84,2.0,5.0,66,0.00,,,0.00,Wunderground v.1.15,2013-09-24 04:27:00,
2013-09-23 22:32:00,35.1,26.3,30.01,East,84,2.0,3.0,70,0.00,,,0.00,Wunderground v.1.15,2013-09-24 04:32:00,
2013-09-23 22:37:00,34.8,25.7,30.01,East,84,1.0,4.0,69,0.00,,,0.00,Wunderground v.1.15,2013-09-24 04:37:00,
2013-09-23 22:42:00,34.5,25.4,30.01,East,84,3.0,3.0,69,0.00,,,0.00,Wunderground v.1.15,2013-09-24 04:42:00,
2013-09-23 22:47:00,34.2,25.1,30.01,ENE,77,6.0,7.0,69,0.00,,,0.00,Wunderground v.1.15,2013-09-24 04:47:00,
2013-09-23 22:52:00,34.1,25.7,30.01,East,99,5.0,8.0,71,0.00,,,0.00,Wunderground v.1.15,2013-09-24 04:52:00,
2013-09-23 22:57:00,34.0,25.6,30.01,East,87,5.0,8.0,71,0.00,,,0.00,Wunderground v.1.15,2013-09-24 04:57:00,
2013-09-23 23:02:00,33.8,25.4,30.01,East,87,1.0,5.0,71,0.00,,,0.00,Wunderground v.1.15,2013-09-24 05:02:00,
2013-09-23 23:07:00,33.7,25.3,30.01,East,87,4.0,6.0,71,0.00,,,0.00,Wunderground v.1.15,2013-09-24 05:07:00,
2013-09-23 23:12:00,33.6,25.2,30.02,East,87,5.0,5.0,71,0.00,,,0.00,Wunderground v.1.15,2013-09-24 05:12:00,
2013-09-23 23:17:00,33.7,25.3,30.01,East,87,2.0,5.0,71,0.00,,,0.00,Wunderground v.1.15,2013-09-24 05:17:00,
2013-09-23 23:22:00,33.8,25.4,30.02,East,87,0.0,3.0,71,0.00,,,0.00,Wunderground v.1.15,2013-09-24 05:22:00,
2013-09-23 23:27:00,33.8,25.4,30.02,East,86,4.0,6.0,71,0.00,,,0.00,Wunderground v.1.15,2013-09-24 05:27:00,
2013-09-23 23:32:00,33.9,25.1,30.02,East,84,2.0,5.0,70,0.00,,,0.00,Wunderground v.1.15,2013-09-24 05:32:00,
2013-09-23 23:37:00,34.4,25.6,30.02,East,84,2.0,5.0,70,0.00,,,0.00,Wunderground v.1.15,2013-09-24 05:37:00,
2013-09-23 23:42:00,34.7,25.6,30.02,East,84,5.0,5.0,69,0.00,,,0.00,Wunderground v.1.15,2013-09-24 05:42:00,
2013-09-23 23:47:00,34.7,25.6,30.02,East,84,2.0,5.0,69,0.00,,,0.00,Wunderground v.1.15,2013-09-24 05:47:00,
2013-09-23 23:52:00,34.6,25.5,30.02,East,84,3.0,3.0,69,0.00,,,0.00,Wunderground v.1.15,2013-09-24 05:52:00,
2013-09-23 23:57:00,34.6,25.5,30.02,East,84,3.0,4.0,69,0.00,,,0.00,Wunderground v.1.15,2013-09-24 05:57:00,